Regional Weather Roundup
Issued by NWS

Home | Current Version | Previous Version | Text Only | Print | Product List | Glossary On
Versions: 1 2 3 4 5 6 7 8 9 10 11 12 13 14 15 16 17 18 19 20 21 22 23 24 25 26 27
772
ASUS45 KREV 221610
RWRNV
NEVADA REGIONAL WEATHER ROUNDUP
NATIONAL WEATHER SERVICE RENO NV
900 AM PDT FRI MAY 22 2015

NOTE: "FAIR" INDICATES FEW OR NO CLOUDS BELOW 12,000 FEET WITH NO
SIGNIFICANT WEATHER AND/OR OBSTRUCTIONS TO VISIBILITY.

NVZ001-003-004-221700-
WESTERN NEVADA

CITY           SKY/WX    TMP DP  RH WIND       PRES   REMARKS
RENO           LGT RAIN  51  46  83 CALM      30.00R
CARSON CITY    LGT RAIN  50  46  87 NW5       30.00R
MINDEN         PTSUNNY   50  45  81 CALM      30.01
SLIDE MTN        N/A     32  32 100 NE5         N/A
PYRAMID LAKE     N/A     54 N/A N/A N2          N/A
FALLON         PTSUNNY   56  43  61 CALM      29.96R
LOVELOCK       CLOUDY    55  46  71 CALM      29.95S
HAWTHORNE      PTSUNNY   52  45  76 E9        29.99R
$$

NVZ002-CAZ072-073-221700-
NORTHERN AND CENTRAL SIERRA

CITY           SKY/WX    TMP DP  RH WIND       PRES   REMARKS
S. LAKE TAHOE  CLOUDY    47  40  76 CALM      30.01R
TRUCKEE        CLOUDY    45  41  87 CALM      30.03R
SQUAW VLY 8000   N/A     36  34  93 NE1         N/A
SUSANVILLE     CLOUDY    52  46  82 W3        29.99
BLUE CANYON    FOG       45  42  89 NW3       30.03R VSB 1/2
MAMMOTH LAKES  LGT RAIN  37  37 100 CALM      30.02S
BRIDGEPORT     CLOUDY    43  36  76 CALM      29.99R
$$

NVZ030-031-036-221700-
NORTHERN NEVADA

CITY           SKY/WX    TMP DP  RH WIND       PRES   REMARKS
ELKO           CLOUDY    53  44  71 SW3       29.94S
WINNEMUCCA     SUNNY     56  44  64 W7          N/A
WENDOVER       CLOUDY    59  45  58 E6        29.93S
$$

NVZ035-037-221700-
CENTRAL NEVADA

CITY           SKY/WX    TMP DP  RH WIND       PRES   REMARKS
ELY            PTSUNNY   49  37  63 N7        29.97F
EUREKA           N/A     48  40  73 CALM      29.96S
$$

NVZ013-014-221700-
SOUTH CENTRAL NEVADA

CITY           SKY/WX    TMP DP  RH WIND       PRES   REMARKS
TONOPAH        CLOUDY    53  38  56 NE6       29.96S
$$

NVZ017-020-022-221700-
SOUTHERN NEVADA

CITY           SKY/WX    TMP DP  RH WIND       PRES   REMARKS
LAS VEGAS      PTSUNNY   65  40  39 S10       29.83R
N. LAS VEGAS   MOSUNNY   64  38  38 SE7       29.86R
NELLIS AFB     MOSUNNY   65  41  41 S2        29.86R
HENDERSON      CLOUDY    65  41  41 S10       29.88R
MERCURY        MOSUNNY   61  39  44 SW10      29.89R
$$



USA.gov is the U.S. government's official web portal to all federal, state and local government web resources and services.